Header for Extended Forecast Station List Page

Search by: ID | Name | Date | Parm | Value | Avg | % Avg
Sort by: ID | Name | Date | Parm | Value | Avg | % Avg

Enter search or view all records.

Click on id for station plot
#IDNameDateParmValueAvg% Avg
0LEOI1KOOTENAI-AT LEONIA02-20-2018DISCHARGE (KAF)43403819114
1FCFM8NF FLATHEAD-NEAR COLUMBIA FALLS02-20-2018DISCHARGE (KAF)14231184120
2WGCM8MF FLATHEAD-NEAR WEST GLACIER02-20-2018DISCHARGE (KAF)14711156127
3CFMM8FLATHEAD-AT COLUMBIA FALLS02-20-2018DISCHARGE (KAF)43803264134
4DLGM8CLARK FORK-AT DEER LODGE02-20-2018DISCHARGE (KAF)818299
5DRMM8CLARK FORK-NR DRUMMOND02-20-2018DISCHARGE (KAF)293MM
6RCCM8ROCK CREEK-NEAR CLINTON02-20-2018DISCHARGE (KAF)277193143
7BONM8BLACKFOOT-NEAR BONNER02-20-2018DISCHARGE (KAF)1108638174
8ABOM8CLARK FORK-ABOVE MISSOULA02-20-2018DISCHARGE (KAF)17381162150
9BITM8BITTERROOT-NEAR MISSOULA02-20-2018DISCHARGE (KAF)1203960125
10BELM8CLARK FORK-BELOW MISSOULA02-20-2018DISCHARGE (KAF)29412146137
11STRM8ST. REGIS-NEAR ST. REGIS02-20-2018DISCHARGE (KAF)297237125
12SRGM8CLARK FORK-AT ST REGIS02-20-2018DISCHARGE (KAF)37992917130
13PRTI1PRIEST-NEAR PRIEST RIVER02-20-2018DISCHARGE (KAF)782716109
14SPOW1SPOKANE-AT SPOKANE02-20-2018DISCHARGE (KAF)3152MM
15SATI1ST MARIES-NEAR SANTA02-20-2018DISCHARGE (KAF)168150112
16CIBW1COLUMBIA-AT INTL BOUNDARY02-20-2018DISCHARGE (KAF)26368MM
17LAUW1KETTLE-AT LAURIER02-20-2018DISCHARGE (KAF)14681463100
18TONW1OKANOGAN-NEAR TONASKET02-20-2018DISCHARGE (KAF)13191167113
19PATW1METHOW-NEAR PATEROS02-20-2018DISCHARGE (KAF)807651124
20ARDW1ENTIAT-NEAR ARDENVOIR02-20-2018DISCHARGE (KAF)167143117
21PESW1WENATCHEE-AT PESHASTIN02-20-2018DISCHARGE (KAF)11841097108
22EASW1YAKIMA-AT EASTON02-20-2018DISCHARGE (KAF)11699117
23TNAW1TEANAWAY-BELOW FORKS02-20-2018DISCHARGE (KAF)164132124
24UMTW1YAKIMA-AT UMTANUM02-20-2018DISCHARGE (KAF)709634112
25CLFW1NACHES-NEAR CLIFFDEL02-20-2018DISCHARGE (KAF)371321115
26NACW1NACHES-NEAR NACHES02-20-2018DISCHARGE (KAF)576411140
27PARW1YAKIMA-NEAR PARKER02-20-2018DISCHARGE (KAF)777636122
28KIOW1YAKIMA-AT KIONA02-20-2018DISCHARGE (KAF)10271016101
29CHEI1FALL RIVER-NEAR CHESTER02-20-2018DISCHARGE (KAF)341291117
30ANTI1HENRYS FORK-AT ST. ANTHONY02-20-2018DISCHARGE (KAF)690602115
31TEAI1TETON-NEAR ST. ANTHONY02-20-2018DISCHARGE (KAF)292256114
32REXI1HENRYS FORK-AT REXBURG02-20-2018DISCHARGE (KAF)790704112
33JKSW4SNAKE-NEAR JACKSON02-20-2018DISCHARGE (KAF)1410989143
34ALPW4SNAKE-NEAR ALPINE02-20-2018DISCHARGE (KAF)17781302137
35HEII1SNAKE-NEAR HEISE02-20-2018DISCHARGE (KAF)29881941154
36SIFI1SNAKE-AB EAGLE ROCK NR IDAHO FALLS02-20-2018DISCHARGE (KAF)30431947156
37SHYI1SNAKE-NEAR SHELLEY02-20-2018DISCHARGE (KAF)29211927152
38SNAI1SNAKE-AT BLACKFOOT02-20-2018DISCHARGE (KAF)26211666157
39BFTI1SNAKE-NEAR BLACKFOOT02-20-2018DISCHARGE (KAF)26021642158
40PIHI1PORTNEUF-AT POCATELLO02-20-2018DISCHARGE (KAF)7610076
41MILI1SNAKE-AT MILNER02-20-2018DISCHARGE (KAF)1043634164
42HOTI1BRUNEAU-NEAR HOT SPRINGS02-20-2018DISCHARGE (KAF)10516863
43SWAI1SNAKE-BELOW SWAN FALLS02-20-2018DISCHARGE (KAF)28462671107
44HWRI1BIG LOST-AT HOWELL RANCH NEAR CHILLY02-20-2018DISCHARGE (KAF)115102113
45HALI1BIG WOOD-AT HAILEY02-20-2018DISCHARGE (KAF)183166110
46BIGI1BOISE-AT GLENWOOD BRIDGE02-20-2018DISCHARGE (KAF)32935593
47PARI1BOISE-NEAR PARMA02-20-2018DISCHARGE (KAF)36541987
48VALO3MALHEUR-NEAR VALE02-20-2018DISCHARGE (KAF)376161
49EMMI1PAYETTE-NEAR EMMETT02-20-2018DISCHARGE (KAF)1031112392
50WSRI1WEISER-NEAR WEISER02-20-2018DISCHARGE (KAF)35043680
51WEII1SNAKE-AT WEISER02-20-2018DISCHARGE (KAF)4891534991
52WHBI1SALMON-AT WHITEBIRD02-20-2018DISCHARGE (KAF)48334483108
53TRYO3GRANDE RONDE-TROY02-20-2018DISCHARGE (KAF)1214123598
54ANAW1SNAKE-NEAR ANATONE02-20-2018DISCHARGE (KAF)110891251089
55ORFI1CLEARWATER-AT OROFINO02-20-2018DISCHARGE (KAF)49154141119
56SPDI1CLEARWATER-AT SPALDING02-20-2018DISCHARGE (KAF)73086451113
57TCHW1WALLA WALLA-NEAR TOUCHET02-20-2018DISCHARGE (KAF)241187129
58GIBO3UMATILLA-NEAR GIBBON02-20-2018DISCHARGE (KAF)9683116
59PDTO3UMATILLA-AT PENDLETON02-20-2018DISCHARGE (KAF)217185118
60MYKO3MCKAY CREEK-NEAR PILOT ROCK02-20-2018DISCHARGE (KAF)5035141
61UMAO3UMATILLA-NEAR UMATILLA02-20-2018DISCHARGE (KAF)198144137
62MONO3NF JOHN DAY-AT MONUMENT02-20-2018DISCHARGE (KAF)46662575
63SERO3JOHN DAY-AT SERVICE CK02-20-2018DISCHARGE (KAF)62489969
64MODO3DESCHUTES-AT MOODY NR BIGGS02-20-2018DISCHARGE (KAF)1447152795
65PITW1KLICKITAT-NEAR PITT02-20-2018DISCHARGE (KAF)52052998
66HODO3HOOD-NEAR TUCKER BRIDGE02-20-2018DISCHARGE (KAF)26427098
67UNDW1WHITE SALMON-NEAR UNDERWOOD02-20-2018DISCHARGE (KAF)34835598
68LYDM8KOOTENAI-LIBBY DAM02-20-2018INFLOW (KAF)38603756103
69HHWM8SF FLATHEAD-HUNGRY HORSE DAM02-20-2018INFLOW (KAF)20261543131
70KERM8FLATHEAD-KERR DAM02-20-2018INFLOW (KAF)52044129126
71NOXM8CLARK FORK-NOXON RAPIDS DAM02-20-2018INFLOW (KAF)87977509117
72CABI1CLARK FORK-CABINET GORGE DAM02-20-2018INFLOW (KAF)97057879123
73ALFW1PEND OREILLE-ALBENI FALLS DAM02-20-2018INFLOW (KAF)111359496117
74COEI1COEUR D ALENE-COEUR D ALENE LAKE02-20-2018INFLOW (KAF)31922816113
75LLKW1SPOKANE-AT LONGLAKE02-20-2018INFLOW (KAF)34823388103
76GCDW1COLUMBIA-GRAND COULEE DAM02-20-2018INFLOW (KAF)3143930835102
77CHJW1COLUMBIA-CHIEF JOSEPH DAM02-20-2018INFLOW (KAF)2976727850107
78WELW1COLUMBIA-WELLS DAM02-20-2018INFLOW (KAF)3187329772107
79CHDW1CHELAN-LAKE CHELAN DAM02-20-2018INFLOW (KAF)770718107
80RRHW1COLUMBIA-ROCKY REACH DAM02-20-2018INFLOW (KAF)3240130207107
81WANW1COLUMBIA-WANAPUM DAM02-20-2018INFLOW (KAF)3357532392104
82PRWW1COLUMBIA-PRIEST RAPIDS DAM02-20-2018INFLOW (KAF)3357132971102
83KEDW1YAKIMA-KEECHELUS LAKE02-20-2018INFLOW (KAF)118106112
84KADW1KACHESS-KACHESS DAM02-20-2018INFLOW (KAF)102100102
85CLUW1CLE ELUM-CLE ELUM LAKE02-20-2018INFLOW (KAF)337319106
86BUDW1BUMPING-BUMPING LAKE DAM02-20-2018INFLOW (KAF)11195116
87RILW1TIETON-RIMROCK LAKE NEAR RIMROCK02-20-2018INFLOW (KAF)176157112
88IPDI1HENRYS FORK-ISLAND PARK DAM02-20-2018INFLOW (KAF)209179117
89JLKW4SNAKE-JACKSON LAKE AT DAM02-20-2018INFLOW (KAF)740543136
90PLDI1SF SNAKE-PALISADES DAM02-20-2018INFLOW (KAF)25502000128
91RIDI1WILLOW CREEK-RIRIE DAM02-20-2018INFLOW (KAF)304370
92AFRI1SNAKE-AMERICAN FALLS RESERVOIR02-20-2018INFLOW (KAF)31862311138
93MACI1BIG LOST-MACKAY RESERVOIR NEAR MACKAY02-20-2018INFLOW (KAF)10010496
94MAGI1BIG WOOD-MAGIC DAM02-20-2018INFLOW (KAF)17321281
95LWRI1LITTLE WOOD-LITTLE WOOD DAM02-20-2018INFLOW (KAF)466867
96OWYO3OWYHEE-OWYHEE DAM02-20-2018INFLOW (KAF)20336056
97ARAI1SF BOISE-ANDERSON RANCH DAM02-20-2018INFLOW (KAF)37744585
98LUCI1BOISE-LUCKY PEAK DAM02-20-2018INFLOW (KAF)892MM
99WRMO3MALHEUR-WARM SPRINGS DAM02-20-2018INFLOW (KAF)467066
100BERO3MALHEUR-AGENCY VALLEY DAM02-20-2018INFLOW (KAF)335263
101BULO3BULLY CREEK-BULLY CREEK DAM02-20-2018INFLOW (KAF)88104
102CSDI1NF PAYETTE-CASCADE DAM02-20-2018INFLOW (KAF)42245593
103DEDI1DEADWOOD-NEAR LOWMAN02-20-2018INFLOW (KAF)10610899
104BRNI1SNAKE-BROWNLEE DAM02-20-2018INFLOW (KAF)5331578792
105DWRI1NF CLEARWATER-DWORSHAK DAM02-20-2018INFLOW (KAF)31052572121
106LGDW1SNAKE-LOWER GRANITE DAM02-20-2018INFLOW (KAF)183961896297
107LGSW1SNAKE-LITTLE GOOSE DAM02-20-2018INFLOW (KAF)183961899597
108LMNW1SNAKE-LOWER MONUMENTAL DAM02-20-2018INFLOW (KAF)188061920298
109IHDW1SNAKE-ICE HARBOR DAM02-20-2018INFLOW (KAF)188061907999
110MCDW1COLUMBIA-MCNARY DAM02-20-2018INFLOW (KAF)535715416999
111JDAO3COLUMBIA-JOHN DAY DAM02-20-2018INFLOW (KAF)556915674598
112TDAO3COLUMBIA-THE DALLES DAM02-20-2018INFLOW (KAF)5613054215104
113BONO3COLUMBIA-BONNEVILLE DAM02-20-2018INFLOW (KAF)5725456473101
114HOPI1PEND OREILLE-PEND OREILLE LAKE NR HOPE02-20-2018LAKE ELEVATION (FT)MMM
115BFEI1KOOTENAI-AT BONNERS FERRY02-20-2018STAGE (FT)MMM
116SJMI1ST JOE-AT ST MARIES02-20-2018STAGE (FT)MMM